| time (UTC) | temp F | wind direction | speed MPH | gust MPH | rain 1hr in | rain 24hr in | rain mn in | humidity % | barometer mb |
| 20260504174004 | 71 | 234 | 8.0 | 17.0 | 0.00 | 0.07 | 0.07 | 53 | 1005.4 |
| 20260504173503 | 71 | 235 | 8.0 | 22.0 | 0.00 | 0.07 | 0.07 | 51 | 1005.4 |
| 20260504173003 | 71 | 238 | 7.0 | 22.0 | 0.00 | 0.07 | 0.07 | 50 | 1005.3 |
| 20260504172505 | 72 | 236 | 8.0 | 19.0 | 0.00 | 0.07 | 0.07 | 49 | 1005.4 |
| 20260504172004 | 72 | 226 | 7.0 | 18.0 | 0.00 | 0.07 | 0.07 | 49 | 1005.4 |
| 20260504171504 | 72 | 204 | 6.0 | 18.0 | 0.00 | 0.07 | 0.07 | 51 | 1005.2 |
| 20260504171003 | 72 | 208 | 5.0 | 15.0 | 0.00 | 0.07 | 0.07 | 51 | 1005.0 |
| 20260504170503 | 72 | 231 | 5.0 | 12.0 | 0.00 | 0.07 | 0.07 | 54 | 1004.9 |
| 20260504151005 | 70 | 241 | 6.0 | 13.0 | 0.00 | 0.07 | 0.07 | 56 | 1006.5 |
| 20260504150505 | 69 | 242 | 5.0 | 11.0 | 0.00 | 0.07 | 0.07 | 59 | 1006.4 |
| 20260504141004 | 62 | 249 | 6.0 | 13.0 | 0.07 | 0.07 | 0.07 | 66 | 1006.9 |
| 20260504140504 | 62 | 252 | 5.0 | 13.0 | 0.07 | 0.07 | 0.07 | 67 | 1007.0 |
| 20260504130503 | 56 | 253 | 3.0 | 9.0 | 0.00 | 0.00 | 0.00 | 77 | 1006.9 |
| 20260504110503 | 48 | 200 | 1.0 | 4.0 | 0.00 | 0.00 | 0.00 | 79 | 1006.7 |
| 20260504100504 | 47 | 200 | 1.0 | 4.0 | 0.00 | 0.00 | 0.00 | 79 | 1007.1 |
| 20260504082003 | 47 | 200 | 1.0 | 4.0 | 0.00 | 0.00 | 0.00 | 75 | 1007.8 |
| 20260504081504 | 48 | 200 | 1.0 | 4.0 | 0.00 | 0.00 | 0.00 | 74 | 1007.9 |
| 20260504081004 | 48 | 200 | 1.0 | 4.0 | 0.00 | 0.00 | 0.00 | 74 | 1007.8 |
| 20260504080504 | 48 | 200 | 1.0 | 4.0 | 0.00 | 0.00 | 0.00 | 74 | 1007.8 |
| 20260504050504 | 54 | 195 | 3.0 | 7.0 | 0.00 | 0.00 | 0.00 | 61 | 1009.3 |
| 20260504050003 | 54 | 197 | 4.0 | 7.0 | 0.00 | 0.00 | 0.00 | 61 | 1009.3 |
| 20260504045503 | 54 | 194 | 4.0 | 8.0 | 0.00 | 0.00 | 0.00 | 60 | 1009.4 |
| 20260504045003 | 55 | 190 | 3.0 | 8.0 | 0.00 | 0.00 | 0.00 | 60 | 1009.4 |
| 20260504044504 | 55 | 194 | 3.0 | 8.0 | 0.00 | 0.00 | 0.00 | 60 | 1009.4 |
| 20260504044003 | 55 | 201 | 4.0 | 8.0 | 0.00 | 0.00 | 0.00 | 60 | 1009.5 |
| 20260504043503 | 55 | 204 | 4.0 | 9.0 | 0.00 | 0.00 | 0.00 | 60 | 1009.6 |
| 20260504043003 | 55 | 203 | 4.0 | 9.0 | 0.00 | 0.00 | 0.00 | 60 | 1009.5 |
| 20260504042503 | 55 | 206 | 4.0 | 10.0 | 0.00 | 0.00 | 0.00 | 60 | 1009.6 |
| 20260504042004 | 55 | 207 | 4.0 | 11.0 | 0.00 | 0.00 | 0.00 | 60 | 1009.6 |
| 20260504041504 | 55 | 203 | 4.0 | 11.0 | 0.00 | 0.00 | 0.00 | 60 | 1009.6 |
| 20260504041003 | 55 | 192 | 4.0 | 9.0 | 0.00 | 0.00 | 0.00 | 60 | 1009.6 |
| 20260504040503 | 55 | 189 | 4.0 | 9.0 | 0.00 | 0.00 | 0.00 | 60 | 1009.7 |
| 20260504040003 | 55 | 199 | 5.0 | 9.0 | 0.00 | 0.00 | 0.00 | 60 | 1009.7 |
| 20260504035505 | 55 | 202 | 4.0 | 9.0 | 0.00 | 0.00 | 0.00 | 60 | 1009.8 |
| 20260504035004 | 55 | 199 | 3.0 | 8.0 | 0.00 | 0.00 | 0.00 | 60 | 1009.9 |
| 20260504034503 | 55 | 198 | 4.0 | 8.0 | 0.00 | 0.00 | 0.00 | 60 | 1009.9 |
| 20260504034003 | 55 | 192 | 4.0 | 9.0 | 0.00 | 0.00 | 0.00 | 60 | 1010.0 |
| 20260504033504 | 55 | 189 | 4.0 | 9.0 | 0.00 | 0.00 | 0.00 | 60 | 1010.0 |
| 20260504033003 | 55 | 201 | 4.0 | 9.0 | 0.00 | 0.00 | 0.00 | 59 | 1010.0 |
| 20260504032504 | 55 | 200 | 5.0 | 9.0 | 0.00 | 0.00 | 0.00 | 59 | 1010.0 |
| 20260504032003 | 55 | 193 | 4.0 | 11.0 | 0.00 | 0.00 | 0.00 | 59 | 1010.0 |
| 20260504031503 | 56 | 201 | 4.0 | 11.0 | 0.00 | 0.00 | 0.00 | 58 | 1010.0 |
| 20260504031004 | 56 | 204 | 4.0 | 10.0 | 0.00 | 0.00 | 0.00 | 58 | 1010.1 |
| 20260504030503 | 56 | 203 | 4.0 | 10.0 | 0.00 | 0.00 | 0.00 | 57 | 1010.1 |
| 20260504030005 | 56 | 207 | 4.0 | 8.0 | 0.00 | 0.00 | 0.00 | 57 | 1010.1 |
| 20260504025504 | 56 | 213 | 4.0 | 8.0 | 0.00 | 0.00 | 0.00 | 57 | 1010.1 |
| 20260504025005 | 56 | 215 | 4.0 | 8.0 | 0.00 | 0.00 | 0.00 | 57 | 1010.1 |
| 20260504024503 | 56 | 208 | 4.0 | 8.0 | 0.00 | 0.00 | 0.00 | 57 | 1010.2 |
| 20260504024003 | 56 | 199 | 3.0 | 7.0 | 0.00 | 0.00 | 0.00 | 56 | 1010.1 |
| 20260504023503 | 56 | 199 | 3.0 | 9.0 | 0.00 | 0.00 | 0.00 | 56 | 1010.1 |
| 20260504023005 | 56 | 200 | 4.0 | 9.0 | 0.00 | 0.00 | 0.00 | 56 | 1010.1 |
| 20260504022504 | 57 | 205 | 4.0 | 9.0 | 0.00 | 0.00 | 0.00 | 56 | 1010.0 |
| 20260504022003 | 57 | 202 | 4.0 | 10.0 | 0.00 | 0.00 | 0.00 | 55 | 1010.0 |
| 20260504021503 | 57 | 200 | 4.0 | 10.0 | 0.00 | 0.00 | 0.00 | 55 | 1010.0 |
| 20260504021004 | 57 | 199 | 4.0 | 10.0 | 0.00 | 0.00 | 0.00 | 55 | 1010.0 |
| 20260504020504 | 57 | 196 | 4.0 | 9.0 | 0.00 | 0.00 | 0.00 | 54 | 1010.0 |
| 20260504020003 | 58 | 203 | 3.0 | 9.0 | 0.00 | 0.00 | 0.00 | 54 | 1010.0 |
| 20260504015503 | 58 | 208 | 3.0 | 6.0 | 0.00 | 0.00 | 0.00 | 53 | 1010.0 |
| 20260504015003 | 58 | 207 | 3.0 | 8.0 | 0.00 | 0.00 | 0.00 | 53 | 1010.0 |
| 20260504014504 | 58 | 205 | 4.0 | 8.0 | 0.00 | 0.00 | 0.00 | 53 | 1009.9 |
| 20260504014003 | 58 | 205 | 3.0 | 8.0 | 0.00 | 0.00 | 0.00 | 53 | 1010.0 |
| 20260504013503 | 58 | 209 | 3.0 | 9.0 | 0.00 | 0.00 | 0.00 | 53 | 1010.0 |
| 20260504013003 | 58 | 214 | 4.0 | 9.0 | 0.00 | 0.00 | 0.00 | 52 | 1010.0 |
| 20260504012505 | 59 | 226 | 3.0 | 10.0 | 0.00 | 0.00 | 0.00 | 52 | 1010.1 |
| 20260504012003 | 59 | 215 | 3.0 | 10.0 | 0.00 | 0.00 | 0.00 | 52 | 1010.1 |
| 20260504011504 | 59 | 200 | 4.0 | 9.0 | 0.00 | 0.00 | 0.00 | 52 | 1010.0 |
| 20260504011003 | 59 | 201 | 4.0 | 9.0 | 0.00 | 0.00 | 0.00 | 52 | 1010.0 |
| 20260504010504 | 59 | 206 | 3.0 | 9.0 | 0.00 | 0.00 | 0.00 | 52 | 1010.0 |
| 20260504010004 | 59 | 217 | 3.0 | 9.0 | 0.00 | 0.00 | 0.00 | 52 | 1010.1 |
| 20260504005503 | 59 | 219 | 3.0 | 9.0 | 0.00 | 0.00 | 0.00 | 52 | 1010.1 |
| 20260504005004 | 59 | 217 | 3.0 | 9.0 | 0.00 | 0.00 | 0.00 | 51 | 1010.2 |
| 20260504004503 | 60 | 219 | 3.0 | 7.0 | 0.00 | 0.00 | 0.00 | 50 | 1010.2 |
| 20260504004003 | 60 | 219 | 3.0 | 10.0 | 0.00 | 0.00 | 0.00 | 50 | 1010.3 |
| 20260504003504 | 60 | 219 | 3.0 | 10.0 | 0.00 | 0.00 | 0.00 | 50 | 1010.2 |
| 20260504003003 | 60 | 215 | 4.0 | 11.0 | 0.00 | 0.00 | 0.00 | 49 | 1010.2 |
| 20260504002503 | 60 | 209 | 4.0 | 11.0 | 0.00 | 0.00 | 0.00 | 49 | 1010.1 |
| 20260504002004 | 60 | 220 | 4.0 | 10.0 | 0.00 | 0.00 | 0.00 | 50 | 1010.2 |
| 20260504001503 | 60 | 222 | 5.0 | 11.0 | 0.00 | 0.00 | 0.00 | 49 | 1010.1 |
| 20260504001003 | 60 | 220 | 5.0 | 11.0 | 0.00 | 0.00 | 0.00 | 49 | 1010.2 |
| 20260504000504 | 60 | 217 | 5.0 | 12.0 | 0.00 | 0.00 | 0.00 | 48 | 1010.2 |
| 20260504000004 | 60 | 202 | 5.0 | 12.0 | 0.00 | 0.00 | 0.00 | 48 | 1010.1 |
| 20260503235504 | 60 | 209 | 5.0 | 14.0 | 0.00 | 0.00 | 0.00 | 48 | 1010.2 |
| 20260503235003 | 60 | 213 | 6.0 | 15.0 | 0.00 | 0.00 | 0.00 | 47 | 1010.2 |
| 20260503234505 | 60 | 214 | 5.0 | 15.0 | 0.00 | 0.00 | 0.00 | 47 | 1010.2 |
| 20260503234004 | 60 | 213 | 4.0 | 12.0 | 0.00 | 0.00 | 0.00 | 46 | 1010.3 |
| 20260503233503 | 60 | 216 | 5.0 | 12.0 | 0.00 | 0.00 | 0.00 | 47 | 1010.5 |
| 20260503233003 | 60 | 220 | 4.0 | 11.0 | 0.00 | 0.00 | 0.00 | 46 | 1010.5 |
| 20260503232504 | 61 | 214 | 6.0 | 14.0 | 0.00 | 0.00 | 0.00 | 46 | 1010.5 |
| 20260503232003 | 61 | 213 | 7.0 | 14.0 | 0.00 | 0.00 | 0.00 | 45 | 1010.6 |
| 20260503231504 | 61 | 217 | 7.0 | 15.0 | 0.00 | 0.00 | 0.00 | 45 | 1010.6 |
| 20260503231003 | 61 | 215 | 7.0 | 15.0 | 0.00 | 0.00 | 0.00 | 44 | 1010.6 |
| 20260503230505 | 61 | 223 | 6.0 | 15.0 | 0.00 | 0.00 | 0.00 | 45 | 1010.9 |
| 20260503230003 | 61 | 221 | 6.0 | 14.0 | 0.00 | 0.00 | 0.00 | 45 | 1010.8 |
| 20260503225505 | 61 | 208 | 6.0 | 14.0 | 0.00 | 0.00 | 0.00 | 44 | 1010.7 |
| 20260503225003 | 61 | 206 | 5.0 | 13.0 | 0.00 | 0.00 | 0.00 | 45 | 1010.7 |
| 20260503224503 | 61 | 207 | 6.0 | 19.0 | 0.00 | 0.00 | 0.00 | 44 | 1010.7 |
| 20260503224004 | 62 | 221 | 7.0 | 19.0 | 0.00 | 0.00 | 0.00 | 43 | 1010.8 |
| 20260503223503 | 62 | 237 | 7.0 | 16.0 | 0.00 | 0.00 | 0.00 | 44 | 1010.8 |
| 20260503223003 | 62 | 232 | 7.0 | 17.0 | 0.00 | 0.00 | 0.00 | 43 | 1010.8 |
| 20260503222504 | 62 | 221 | 5.0 | 17.0 | 0.00 | 0.00 | 0.00 | 43 | 1010.7 |
| 20260503222004 | 62 | 209 | 6.0 | 15.0 | 0.00 | 0.00 | 0.00 | 43 | 1010.5 |
| 20260503221503 | 62 | 200 | 6.0 | 16.0 | 0.00 | 0.00 | 0.00 | 43 | 1010.5 |
| 20260503221003 | 62 | 206 | 6.0 | 16.0 | 0.00 | 0.00 | 0.00 | 43 | 1010.6 |
| 20260503220503 | 62 | 213 | 6.0 | 14.0 | 0.00 | 0.00 | 0.00 | 43 | 1010.6 |
| 20260503220004 | 62 | 214 | 7.0 | 15.0 | 0.00 | 0.00 | 0.00 | 43 | 1010.8 |
| 20260503215504 | 62 | 223 | 8.0 | 15.0 | 0.00 | 0.00 | 0.00 | 43 | 1010.7 |
| 20260503215004 | 62 | 231 | 8.0 | 20.0 | 0.00 | 0.00 | 0.00 | 42 | 1010.9 |
| 20260503214504 | 62 | 228 | 7.0 | 20.0 | 0.00 | 0.00 | 0.00 | 42 | 1011.0 |
| 20260503214003 | 62 | 214 | 8.0 | 22.0 | 0.00 | 0.00 | 0.00 | 41 | 1010.9 |
| 20260503213503 | 62 | 213 | 9.0 | 22.0 | 0.00 | 0.00 | 0.00 | 42 | 1010.9 |
| 20260503213004 | 62 | 223 | 7.0 | 19.0 | 0.00 | 0.00 | 0.00 | 43 | 1010.9 |
| 20260503212503 | 62 | 218 | 6.0 | 17.0 | 0.00 | 0.00 | 0.00 | 42 | 1011.1 |
| 20260503212003 | 62 | 217 | 6.0 | 16.0 | 0.00 | 0.00 | 0.00 | 44 | 1011.2 |
| 20260503211503 | 62 | 225 | 6.0 | 19.0 | 0.00 | 0.00 | 0.00 | 43 | 1011.4 |
| 20260503211004 | 62 | 234 | 9.0 | 19.0 | 0.00 | 0.00 | 0.00 | 42 | 1011.5 |
| 20260503210503 | 62 | 226 | 10.0 | 25.0 | 0.00 | 0.00 | 0.00 | 41 | 1011.6 |
| 20260503210005 | 62 | 225 | 10.0 | 25.0 | 0.00 | 0.00 | 0.00 | 40 | 1011.7 |
| 20260503205503 | 63 | 240 | 10.0 | 23.0 | 0.00 | 0.00 | 0.00 | 41 | 1011.9 |
| 20260503205003 | 63 | 233 | 10.0 | 23.0 | 0.00 | 0.00 | 0.00 | 39 | 1012.0 |
| 20260503204504 | 63 | 221 | 7.0 | 18.0 | 0.00 | 0.00 | 0.00 | 41 | 1011.9 |
| 20260503204003 | 63 | 231 | 7.0 | 18.0 | 0.00 | 0.00 | 0.00 | 41 | 1012.0 |
| 20260503203503 | 63 | 237 | 8.0 | 18.0 | 0.00 | 0.00 | 0.00 | 40 | 1012.3 |
| 20260503203003 | 63 | 219 | 7.0 | 22.0 | 0.00 | 0.00 | 0.00 | 42 | 1012.4 |
| 20260503202505 | 62 | 205 | 7.0 | 22.0 | 0.00 | 0.00 | 0.00 | 41 | 1012.6 |
| 20260503202004 | 62 | 218 | 8.0 | 19.0 | 0.00 | 0.00 | 0.00 | 40 | 1012.7 |
| 20260503201504 | 62 | 227 | 9.0 | 16.0 | 0.00 | 0.00 | 0.00 | 41 | 1012.9 |
| 20260503201003 | 62 | 231 | 9.0 | 19.0 | 0.00 | 0.00 | 0.00 | 42 | 1012.8 |
| 20260503200503 | 62 | 224 | 9.0 | 19.0 | 0.00 | 0.00 | 0.00 | 42 | 1013.0 |
| 20260503200004 | 61 | 218 | 8.0 | 16.0 | 0.00 | 0.00 | 0.00 | 42 | 1012.9 |
| 20260503195505 | 61 | 233 | 8.0 | 20.0 | 0.00 | 0.00 | 0.00 | 42 | 1013.3 |
| 20260503195003 | 61 | 242 | 7.0 | 20.0 | 0.00 | 0.00 | 0.00 | 43 | 1013.5 |
| 20260503194503 | 61 | 224 | 5.0 | 15.0 | 0.00 | 0.00 | 0.00 | 44 | 1013.6 |
| 20260503194004 | 61 | 234 | 7.0 | 20.0 | 0.00 | 0.00 | 0.00 | 43 | 1013.9 |
| 20260503193503 | 61 | 247 | 8.0 | 20.0 | 0.00 | 0.00 | 0.00 | 42 | 1014.2 |
| 20260503193003 | 61 | 249 | 7.0 | 16.0 | 0.00 | 0.00 | 0.00 | 41 | 1014.4 |
| 20260503192504 | 62 | 252 | 8.0 | 19.0 | 0.00 | 0.00 | 0.00 | 42 | 1014.5 |
| 20260503192004 | 62 | 249 | 9.0 | 19.0 | 0.00 | 0.00 | 0.00 | 41 | 1014.5 |
| 20260503191504 | 62 | 235 | 8.0 | 21.0 | 0.00 | 0.00 | 0.00 | 40 | 1014.4 |
| 20260503191003 | 62 | 232 | 9.0 | 21.0 | 0.00 | 0.00 | 0.00 | 40 | 1014.1 |
| 20260503190503 | 63 | 229 | 9.0 | 19.0 | 0.00 | 0.00 | 0.00 | 38 | 1014.2 |
| 20260503190004 | 63 | 226 | 7.0 | 15.0 | 0.00 | 0.00 | 0.00 | 40 | 1014.2 |
| 20260503185503 | 63 | 241 | 7.0 | 19.0 | 0.00 | 0.00 | 0.00 | 41 | 1014.3 |
| 20260503185004 | 63 | 247 | 8.0 | 19.0 | 0.00 | 0.00 | 0.00 | 39 | 1014.2 |
| 20260503184504 | 63 | 231 | 8.0 | 19.0 | 0.00 | 0.00 | 0.00 | 43 | 1014.2 |
| 20260503184005 | 63 | 217 | 6.0 | 19.0 | 0.00 | 0.00 | 0.00 | 41 | 1014.1 |
| 20260503183503 | 62 | 209 | 6.0 | 16.0 | 0.00 | 0.00 | 0.00 | 44 | 1014.4 |
| 20260503183003 | 62 | 207 | 6.0 | 16.0 | 0.00 | 0.00 | 0.00 | 44 | 1014.4 |
| 20260503182504 | 61 | 224 | 5.0 | 14.0 | 0.00 | 0.00 | 0.00 | 44 | 1014.7 |
| 20260503182005 | 61 | 219 | 5.0 | 13.0 | 0.00 | 0.00 | 0.00 | 43 | 1015.1 |
| 20260503181505 | 61 | 231 | 5.0 | 14.0 | 0.00 | 0.00 | 0.00 | 44 | 1015.1 |
| 20260503181005 | 60 | 234 | 7.0 | 16.0 | 0.00 | 0.00 | 0.00 | 43 | 1015.2 |
| 20260503180504 | 60 | 223 | 6.0 | 17.0 | 0.00 | 0.00 | 0.00 | 42 | 1015.5 |
| 20260503180005 | 60 | 231 | 6.0 | 17.0 | 0.00 | 0.00 | 0.00 | 43 | 1015.4 |
| 20260503175503 | 60 | 230 | 7.0 | 14.0 | 0.00 | 0.00 | 0.00 | 41 | 1015.6 |
| 20260503175004 | 60 | 230 | 7.0 | 16.0 | 0.00 | 0.00 | 0.00 | 41 | 1015.6 |
| 20260503174504 | 60 | 237 | 7.0 | 16.0 | 0.00 | 0.00 | 0.00 | 40 | 1015.7 |